Regional Weather Roundup
Issued by NWS

Home | Current Version | Previous Version | Graphics & Text | Print | Product List | Glossary On
Versions: 1 2 3 4 5 6 7 8 9 10 11 12 13 14 15 16 17 18 19 20 21 22 23 24 25 26 27 28 29 30 31 32 33 34 35 36 37 38 39 40 41 42 43 44 45 46 47 48 49 50
000
ASUS43 KMPX 251201
RWRMN
WEATHER ROUNDUP FOR MINNESOTA
NATIONAL WEATHER SERVICE TWIN CITIES/CHANHASSEN MN
700 AM CDT FRI MAY 25 2018


NOTE: "FAIR" INDICATES FEW OR NO CLOUDS BELOW 12,000 FEET WITH NO
SIGNIFICANT WEATHER AND/OR OBSTRUCTIONS TO VISIBILITY. N/A MEANS
CURRENT SKY AND/OR WEATHER CONDITIONS ARE NOT AVAILABLE.

MNZ060>063-068>070-251300-
   Twin Cities Metro

CITY           SKY/WX    TMP DP  RH WIND       PRES   REMARKS
TWIN CITIES    CLOUDY    67  65  93 SE6       29.81F
6HR MIN TEMP:  66; 6HR MAX TEMP:  72; 6HR PCP:  0.16;

ST PAUL        FAIR      66  63  90 SE8       29.82F
CRYSTAL        FAIR      67  63  87 SE6       29.80R
BLAINE         CLOUDY    68  64  88 SE9       29.81R
LAKEVILLE      PTSUNNY   64  64 100 E5        29.83S THUNDER
EDEN PRAIRIE   FAIR      67  63  87 SE9       29.80F
6HR MIN TEMP:  65; 6HR MAX TEMP:  71; 6HR PCP:  0.10;

SOUTH ST PAUL  FAIR      65  65 100 SE6       29.82F
LAKE ELMO      FAIR      64  63  94 SE6       29.84S
$$
MNZ001>005-007-008-013>017-022>024-027-028-251300-
   Northwest Minnesota

CITY           SKY/WX    TMP DP  RH WIND       PRES   REMARKS
BEMIDJI        FAIR      65  61  85 S6        29.73R
HALLOCK        FAIR      61  55  82 S3        29.65S
ROSEAU         FAIR      64  57  77 SW6       29.66S
WARROAD        FAIR      63  57  82 SW9       29.65S
THIEF RVR FALL FAIR      62  57  83 SW5       29.70S
CROOKSTON      FAIR      63  57  82 S5        29.70S
FOSSTON        FAIR      63  55  77 S7        29.73R
DETROIT LAKES  FAIR      64  59  82 CALM      29.76S
MOORHEAD       FAIR      63  55  77 S3        29.73S
PARK RAPIDS    FAIR      64  62  93 CALM      29.75R
MAHNOMEN       FAIR      63  58  84 S9        29.73S
$$
MNZ006-009>011-018-025>026-251300-
   North Central Minnesota

CITY           SKY/WX    TMP DP  RH WIND       PRES   REMARKS
BAUDETTE         N/A     66  58  75 SW7       29.65R
FLAG ISLAND    FAIR      64  57  77 SW9       29.61R
INTL FALLS     FAIR      64  63  96 SW5       29.67R
6HR MIN TEMP:  62; 6HR MAX TEMP:  69; 6HR PCP:  0.03;

WASKISH          N/A     66  61  82 CALM      29.69R
BIG FORK       FAIR      64  61  88 SW6       29.71R
LONGVILLE      FAIR      64  61  88 S3        29.75R
GRAND RAPIDS   FAIR      66  61  84 S9        29.76R
CRANE LAKE     FAIR      64  61  88 S6        29.70S
ORR            FAIR      64  57  77 S3        29.68R
COOK           FAIR      66  61  82 SW6       29.72R
WALKER         FAIR      63  60  91 SW6       29.74R
$$
MNZ012-019>021-037-251300-
   Northeast Minnesota

CITY           SKY/WX    TMP DP  RH WIND       PRES   REMARKS
DULUTH         FAIR      68  61  78 SW16      29.76S
6HR MIN TEMP:  59; 6HR MAX TEMP:  68;

ELY            FAIR      66  61  82 SW8       29.73R
HIBBING        FAIR      63  59  87 S3        29.74R
EVELETH        FAIR      64  61  88 SW7       29.75S
DULUTH HARBOR  FAIR      55  54  94 CALM      29.75F
TWO HARBORS    FAIR      64  59  82 SW6       29.74S
SILVER BAY     FAIR      61  61 100 CALM      29.73F
G MARAIS ARPRT FAIR     N/A N/A N/A SE3       29.78R
$$
MNZ029>031-032-039>041-046>048-054>057-064-251300-
   West Central Minnesota

CITY           SKY/WX    TMP DP  RH WIND       PRES   REMARKS
FERGUS FALLS   FAIR      64  61  88 CALM      29.72S
WHEATON        SUNNY     66  57  72 SW6       29.78R
MORRIS         SUNNY     64  61  88 CALM      29.77S
ALEXANDRIA     FAIR      68  61  78 SW10      29.79R
ELBOW LAKE     FAIR      64  62  94 SW6       29.77S
WADENA         FAIR      64  63  94 SW7       29.76R
GLENWOOD       FAIR      63  61  94 SW6       29.75R
APPLETON       MOSUNNY   66  59  77 CALM      29.78R
BENSON         SUNNY     63  61  94 CALM      29.79S
ORTONVILLE     SUNNY     66  61  82 W7        29.77F
MADISON        MOSUNNY   68  61  77 W3        29.78S
WILLMAR        FAIR      64  61  88 CALM      29.81S
$$
MNZ033>034-036-042>043-049>051-058-059-251300-
   Central Minnesota

CITY           SKY/WX    TMP DP  RH WIND       PRES   REMARKS
ST CLOUD       FAIR      65  61  87 SE6       29.78S
6HR MIN TEMP:  64; 6HR MAX TEMP:  71;

SAUK CENTRE    FAIR      64  59  83 S6        29.79S
PAYNESVILLE    FAIR      67  63  88 S3        29.79S
PINE RIVER     FAIR      57  55  94 CALM      29.79R
BRAINERD       FAIR      68  60  75 SW8       29.76S
STAPLES        FAIR      63  61  94 S6        29.77R
LONG PRAIRIE   FAIR      61  59  94 S5        29.79S
LITTLE FALLS   FAIR      64  61  88 CALM      29.77S
LITCHFIELD     FAIR      70  64  83 CALM      29.79S
BUFFALO        FAIR      67  62  82 SE7       29.80S
MAPLE LAKE     FAIR      66  63  90 CALM      29.80S
HUTCHINSON     FAIR      67  64  92 SE5       29.81S
$$
MNZ037-044-045-052-053-251300-
   East Central Minnesota

CITY           SKY/WX    TMP DP  RH WIND       PRES   REMARKS
PRINCETON      FAIR      68  63  83 SE6       29.80R
MORA           FAIR      64  57  77 S5        29.81S
CAMBRIDGE      FAIR      70  57  64 S9        29.80S
RUSH CITY      FAIR      66  61  82 S9        29.80S
MOOSE LAKE     FAIR      64  61  88 SW6       29.76S
HINCKLEY       PTSUNNY   66  63  88 S7        29.79S
CLOQUET        FAIR      66  59  77 S9        29.77S
MCGREGOR       FAIR      68  61  77 S10       29.77R
$$
MNZ071>073-080-081-089-090-097-098-251300-
   Southwest Minnesota

CITY           SKY/WX    TMP DP  RH WIND       PRES   REMARKS
MONTEVIDEO     SUNNY     64  59  82 W5        29.79S
CANBY          SUNNY     69  59  71 SW7       29.80S
MARSHALL       CLOUDY    67  61  81 W12       29.80S
REDWOOD FALLS  CLOUDY    68  64  87 W5        29.79R
OLIVIA         CLOUDY    68  63  83 S6        29.79S
PIPESTONE      SUNNY     64  61  88 CALM      29.84R
WINDOM         CLOUDY    70  52  52 SW6       29.83S
WORTHINGTON    MOSUNNY   68  63  84 SW12      29.84R
JACKSON        CLOUDY    68  63  83 SW8       29.84S
TRACY          MOSUNNY   68  64  85 W5        29.81R
SLAYTON        RAIN      67  62  85 SW7       29.84R
$$
MNZ065>067-074>077-082>085-091>093-251300-
   South Central Minnesota

CITY           SKY/WX    TMP DP  RH WIND       PRES   REMARKS
MANKATO        FAIR      70  64  81 SE8       29.82F
NEW ULM        CLOUDY    66  64  94 S3        29.80S
ST JAMES       PTSUNNY   70  63  78 S10       29.81F
FAIRMONT       PTSUNNY   69  63  81 S10       29.84S
GLENCOE        FAIR      67  67 100 CALM      29.80S
FARIBAULT      FAIR      66  63  88 CALM      29.85F
OWATONNA       PTSUNNY   70  64  83 E6        29.86S
WASECA         FAIR      70  63  78 SE5       29.86S
ALBERT LEA     FAIR      70  61  73 S8        29.85F
$$
MNZ078>079-086>088-094>096-251300-
   Southeast Minnesota

CITY           SKY/WX    TMP DP  RH WIND       PRES   REMARKS
ROCHESTER      FAIR      68  63  84 NE5       29.88R
6HR MIN TEMP:  66; 6HR MAX TEMP:  70;

RED WING       TSTM      64  61  88 SE6       29.85R
STANTON        TSTM      68  63  84 SE10G28   29.81F
DODGE CENTER   FAIR      70  63  78 N6        29.88S
WINONA         PTSUNNY   70  61  73 CALM      29.90R
AUSTIN         FAIR      66  63  88 S6        29.86S
PRESTON        FAIR      67  62  83 S7        29.89S
$$
ABBREVIATIONS USED IN REMARKS
   TC - TEMPERATURES IN CELSIUS
  WCI - WIND CHILL INDEX
   HX - HEAT INDEX
  VSB - VISIBILITY
$$



USA.gov is the U.S. government's official web portal to all federal, state and local government web resources and services.